Weather Roundup
Issued by NWS

Home | Current Version | Previous Version | Text Only | Print | Product List | Glossary On
Versions: 1 2 3 4 5 6 7 8 9 10 11 12 13 14 15 16 17 18 19 20 21 22 23 24 25 26 27 28 29 30 31 32 33 34 35 36 37 38 39 40 41 42 43 44 45 46 47 48 49 50
000
NZUS93 KARX 012010
HRRWXR

CURRENT HOURLY OBSERVATIONS ACROSS
MUCH OF THE UPPER MISSISSIPPI VALLEY
NATIONAL WEATHER SERVICE LA CROSSE WI
300 PM CDT WED OCT 01 2014


...SOUTHEAST MINNESOTA...


CITY           SKY/WX    TMP DP  RH WIND       PRES   REMARKS
ROCHESTER      LGT RAIN  55  54  96 S9        29.81S FOG
ROCHESTER/MAYO CLOUDY    55  54  95 SE9       29.80F
WINONA         LGT RAIN  55  54  94 SE7       29.82F
AUSTIN         CLOUDY    55  55 100 S5        29.79F FOG
ALBERT LEA     CLOUDY    57  57 100 S8        29.78S FOG
DODGE CENTER   CLOUDY    57  55  94 S12       29.79F
PRESTON        CLOUDY    56  52  88 SE7       29.82S
OWATONNA       CLOUDY    57  54  88 SE9       29.78F FOG
FARIBAULT      CLOUDY    55  55 100 SE8       29.78F FOG
$$

...ELSEWHERE IN MINNESOTA...


CITY           SKY/WX    TMP DP  RH WIND       PRES   REMARKS
MINNEAPOLIS    CLOUDY    54  52  93 SE7       29.78F
INTNL FALLS    CLOUDY    53  49  86 S8        29.68F
DULUTH         LGT RAIN  50  47  89 SE10      29.79S FOG
RED WING       CLOUDY    54  52  94 CALM      29.79F FOG
REDWOOD FALLS  PTSUNNY   68  56  65 SE13      29.71F
MANKATO        CLOUDY    57  52  82 S8        29.76S
WORTHINGTON    MOSUNNY   68  57  68 SE13      29.74F
FAIRMONT       CLOUDY    61  55  82 S7        29.75F
$$

...SOUTHWEST WISCONSIN...


CITY           SKY/WX    TMP DP  RH WIND       PRES   REMARKS
LA CROSSE      CLOUDY    62  54  74 CALM      29.83F
PRAIRIE DU CHI CLOUDY    67  52  57 SE8       29.82F
BOSCOBEL       PTSUNNY   70  54  56 SE3       29.83F
LONE ROCK      CLOUDY    71  53  52 SE12      29.84F
PLATTEVILLE    CLOUDY    71  56  58 SE13      29.85S
FORT MC COY    CLOUDY    61  52  72 CALM      29.85S
CAMP DOUGLAS   CLOUDY    63  57  82 SE5       29.85F
VIROQUA        CLOUDY    64  53  66 SE8       29.83F
WIS DELLS      CLOUDY    66  51  58 SE8       29.85F
$$

...ELSEWHERE IN WISCONSIN...


CITY           SKY/WX    TMP DP  RH WIND       PRES   REMARKS
MILWAUKEE      PTSUNNY   60  51  72 SE20      29.94F
MADISON        CLOUDY    69  52  54 SE14      29.86F
GREEN BAY      PTSUNNY   62  53  72 SE14      29.93F
EAU CLAIRE     RAIN      53  51  93 S7        29.82S FOG
BLACK RVR FLS  CLOUDY    58  55  88 CALM      29.84F
MEDFORD        CLOUDY    53  50  87 SE7       29.86F
WAUSAU         LGT RAIN  60  51  72 SE7       29.87F
WIS RAPIDS     CLOUDY    60  52  74 SE7       29.88F
MARSHFIELD     CLOUDY    58  51  78 SE8       29.86F
RICE LAKE      DRIZZLE   50  49  94 SE6       29.84S
$$

...NORTHEAST IOWA...


CITY           SKY/WX    TMP DP  RH WIND       PRES   REMARKS
DECORAH        PTSUNNY   66  54  63 S9G18     29.80F
MASON CITY     CLOUDY    60  58  92 S8        29.80F FOG
CHARLES CITY   CLOUDY    61  55  82 VRB6      29.81S
OELWEIN        SUNNY     72  57  60 S10G20    29.80F
$$

...ELSEWHERE IN IOWA...


CITY           SKY/WX    TMP DP  RH WIND       PRES   REMARKS
DES MOINES     CLOUDY    70  62  76 S6        29.75F
IOWA CITY      CLOUDY    65  60  84 SE8       29.83F
FORT DODGE     CLOUDY    68  63  83 SE10      29.76F
$$

...NORTHERN ILLINOIS...


CITY           SKY/WX    TMP DP  RH WIND       PRES   REMARKS
CHICAGO-OHARE  PTSUNNY   70  52  52 E14       29.91F
CHICAGO-MIDWAY PTSUNNY   72  54  53 SE10      29.92F
MOLINE         CLOUDY    72  56  57 S15G24    29.81F
ROCKFORD       PTSUNNY   73  54  51 SE12      29.87F
PEORIA         CLOUDY    79  60  52 SE6       29.85F
$$

NOTE: "FAIR" INDICATES FEW OR NO CLOUDS BELOW 12,000 FEET WITH NO
SIGNIFICANT WEATHER AND/OR OBSTRUCTIONS TO VISIBILITY. WIND
SPEEDS ARE IN MILES-PER-HOUR.



USA.gov is the U.S. government's official web portal to all federal, state and local government web resources and services.